Location: Carbonear
(47.7333°N, 53.2500°W)
Time: 02:55:33
(UTC+00:00)

AO-27 - Pass Details

Date: 07 December 2022
Orbit: 784 x 797 km, 98.9° (Epoch: 26 January)

Event Time Altitude Azimuth Distance (km) Brightness Sun altitude
Exits shadow 22:59:38 18° 344° (NNW) 1,872 9.7 -32.4°
Drops below altitude 10° 23:00:56 10° 344° (NNW) 2,381 10.3 -32.6°
Sets 23:03:17 0° 345° (NNW) 3,316 11.1 -33.0°
